STARLINK-35954, 66885

Orbit data source: Space-Track

STARLINK-35954, 66885 is a payload satellite owned by SpaceX/Seattle (US) in LEO that was launched on Thu, 04 Dec 2025 UTC via an FALCON 9 launch vehicle from the Air Force Western Test Range (AFWTR). Payload-class satellites include a variety of spacecraft equipped with specific instruments for various scientific and technological missions. These include communications satellites like Starlink; space stations such as the ISS; scientific satellites like the Hubble; Earth observation satellites from companies like Planet Labs, Umbra, and HawkEye 360; GPS; miniature CubeSats for education and research; and military/defense satellites.

Loading next visibility...
Identifier
66885, 2025-283H
Orbit
LEO
Country
Flag of USUS
Related business
Manufacturer
SpaceX/Seattle
Mission
Operational Commercial Communications
Bus & Motor
STARLINK V2MO, Unknown motor
Mass
575 kg wet, ~530 kg dry
Launch date (UTC)
2025-12-04 (7 months ago)
Launch vehicle
FALCON 9
Launch site
Air Force Western Test Range (AFWTR)
Object type
Payload
Rocket body
Debris
Shape & HBR
Box + 2 Pan, 17.7 m
Radar Cross Section
36.964 m², Large (>1 m²)

Expand to show TLE details & history
Last TLE update: 10 hours ago

TLE from 10 hours ago
0 STARLINK-35954
1 66885U 25283H   26171.41206876  .00025399  00000-0  75976-3 0  9999
2 66885  53.1580 266.1706 0001203  86.1910 273.9230 15.34422264 31582
Epoch: 2026-06-20T09:53Z
TLE epoch observation values (Epoch: 2026-06-20T09:53:22.740Z)
Latitude
-0.00005°
Longitude
-150.80125°
Altitude
463.482 km
Speed
7.636 km/s
True Right ascension
17h 44m 40s
True Declination
0° 00' 00"
Sunlit
Object was in full shadow at epoch
Visualization orbit readout
Latitude
Unknown
Longitude
Unknown
Altitude
Unknown
Speed
Unknown
Apparent Right ascension
Unknown
Apparent Declination
Unknown
Sunlit
N/A
Visualization observer readout
Local Sidereal Time
07:18:26
Azimuth
Unknown
Elevation
Unknown
Doppler factor
Unknown
Orbital elements
Apogee altitude
463.717 km
Perigee altitude
462.071 km
Semi-major axis
6,841.031 km
Eccentricity
0.00012
Inclination
53.158°
RAAN
266.1706°
Arg. of periapsis
86.191°
True anomaly
273.90925°
Mean anomaly
273.923°
Eccentric anomaly
273.91612°
Mean motion
3.83584 °/min
Orbital period
93.85 mins
BSTAR
0.00075976
Loading maneuver chart data...
Computing Atmospheric mass density...
Loading historical data...
Loading historical data...
Loading historical data...
Loading historical data...
Loading historical data...
Loading historical data...
Loading historical data...

Documentation

Showing up to 5 results
|